{"data":{"norad_id":65635,"epoch":"2026-09-20T08:20:54.891456Z","epoch_age_seconds":121647,"freshness":"FRESH","line1":"1 65635U 25210P   26263.34785754  .00017173  00000+0  51809-3 0  9991","line2":"2 65635  53.1591 122.2362 0001147 123.2418 236.8695 15.34407913 57540","mean_motion":15.34407913,"eccentricity":0.0001147,"inclination_deg":53.1591,"raan_deg":122.2362,"arg_perigee_deg":123.2418,"mean_anomaly_deg":236.8695,"bstar":0.00051809,"rev_number":5754,"period_min":93.847274104875,"perigee_km":461.89507952667,"apogee_km":463.46436288251,"semimajor_km":6840.8167212046,"source":"CELESTRAK","updated_at":"2026-09-21T09:00:35.675188Z"}}